Location: Unnamed
(54.5186°N, 36.2255°E)
Time: 17:47:04
(UTC+03:00)

ISS - Pass Details

Date: 25 February 2026
Orbit: 416 x 427 km, 51.6° (Epoch: 5 March)

Event Time Altitude Azimuth Distance (km) Brightness Sun altitude
Exits shadow 06:19:04 19° 257° (WSW) 1,072 -2.3 -11.6°
Maximum altitude 06:21:07 41° 194° (SSW) 615 -3.1 -11.3°
Drops below altitude 10° 06:24:18 10° 122° (ESE) 1,492 0.0 -10.9°
Sets 06:26:26 0° 116° (ESE) 2,353 1.4 -10.6°
